Location: Zengebe
(1.4833°N, 32.5167°E)
Time: 23:10:14
(UTC+00:00)

Cosmos 1484 Rocket - Pass Details

Date: 07 June 2020
Orbit: 507 x 558 km, 97.4° (Epoch: 10 July)

Event Time Altitude Azimuth Distance (km) Brightness Sun altitude
Rises 01:48:44 0° 25° (NNE) 2,728 7.1 -26.8°
Reaches altitude 10° 01:51:00 10° 34° (NE) 1,836 6.2 -26.3°
Maximum altitude 01:54:39 35° 101° (E) 904 4.2 -25.5°
Enters shadow 01:55:59 27° 141° (SE) 1,078 4.4 -25.2°
